DMSP 5D-2 F13 DEB, 42319

Orbit data source: Space-Track

DMSP 5D-2 F13 DEB, 42319 is space debris in SSO originally from a launch on Fri, 24 Mar 1995 UTC launched from the Air Force Western Test Range (AFWTR). Debris objects in space refer to the collection of defunct objects orbiting the Earth. Examples of debris include non-operational satellites, rocket bodies, and fragments generated from explosions, collisions, or faulty payload assembly.

Loading next visibility...
Identifier
42319, 1995-015JM
Orbit
SSO
Country
Flag of USUS
Related business
Manufacturer
Unknown
Mission
Spacecraft
Bus & Motor
Unknown
Mass
Unknown
Launch date (UTC)
1995-03-24 (30 years ago)
Launch vehicle
Unknown
Launch site
Air Force Western Test Range (AFWTR)
Object type
Payload
Rocket body
Debris
Shape & HBR
Unknown
Radar Cross Section
Small (<0.1 m²)

Expand to show TLE details & history
Last TLE update: 1 week ago

TLE from 1 week ago
0 DMSP 5D-2 F13 DEB
1 42319U 95015JM  25233.36391112  .00005538  00000-0  20165-2 0  9997
2 42319  98.8878 266.1064 0028624 122.9639 237.4303 14.33326373535288
Epoch: 2025-08-21T08:44Z
TLE epoch observation values (Epoch: 2025-08-21T08:44:01.92Z)
Latitude
0.00005°
Longitude
165.16995°
Altitude
794.635 km
Speed
7.451 km/s
True Right ascension
17h 44m 25s
True Declination
0° 00' 00"
Sunlit
Object was in daylight at epoch
Visualization orbit readout
Latitude
Unknown
Longitude
Unknown
Altitude
Unknown
Speed
Unknown
Apparent Right ascension
Unknown
Apparent Declination
Unknown
Sunlit
N/A
Visualization observer readout
Local Sidereal Time
02:16:56
Azimuth
Unknown
Elevation
Unknown
Doppler factor
Unknown
Orbital elements
Apogee altitude
798.266 km
Perigee altitude
757.3 km
Semi-major axis
7,155.92 km
Eccentricity
0.00286
Inclination
98.8878°
RAAN
266.1064°
Arg. of periapsis
122.9639°
True anomaly
237.15441°
Mean anomaly
237.4303°
Eccentric anomaly
237.2923°
Mean motion
3.58546 °/min
Orbital period
100.41 mins
BSTAR
0.0020165
Loading maneuver chart data...
Computing Atmospheric mass density...

Documentation

Showing up to 5 results
|